#timestamp,LO_Frequency,Hit,StdDev 
1675994415.7,286047002.9,N
1675994435.6,286047002.9,N
1675994455.4,286047003.7,N
1675994475.2,286047002.1,N
1675994495.1,286047000.5,N
1675994496.0,286047000.5,N
1675994515.8,286047001.5,N
1675994535.7,286047000.0,N
1675994555.5,286047000.9,N
1675994575.3,286046999.1,N
1675994595.2,286046998.2,N
1675994615.9,286046999.9,N
1675994635.7,286047001.9,N
1675994655.6,286047005.1,Y
1675994675.4,286047008.8,P
1675994695.3,286047010.4,N
1675994715.1,286047008.5,N
1675994716.0,286047008.5,N
1675994735.8,286047010.4,Y
1675994755.7,286046998.6,P
1675994775.5,286046996.5,N
1675994795.4,286046997.7,N
1675994815.2,286046997.6,N
1675994835.0,286046993.3,N
1675994835.9,286046993.3,N
1675994855.8,286046994.0,N
1675994875.6,286046992.1,N
1675994895.4,286046994.7,N
1675994915.3,286046994.6,N
1675994935.1,286046997.5,N
1675994955.9,286046995.3,N
1675994975.7,286046995.0,N
1675994995.5,286046999.0,N
1675995015.4,286046998.8,N
1675995035.2,286046999.7,N
1675995055.0,286047002.6,N
1675995056.0,286047002.6,N
1675995075.8,286047002.8,N
1675995095.6,286047000.6,N
1675995115.5,286047000.9,N
1675995135.3,286047002.8,N
1675995155.1,286047001.5,N
1675995175.9,286047002.2,N
1675995195.7,286047000.7,N
1675995215.6,286046999.8,N
1675995235.4,286046999.9,N
1675995255.2,286047001.4,N
1675995275.1,286047003.6,N
1675995276.0,286047003.6,N
1675995295.8,286047002.3,N
1675995315.6,286046999.9,N
1675995335.5,286047002.7,N
1675995355.3,286047002.1,N
1675995375.2,286047000.5,N
1675995395.9,286047000.7,N
1675995415.7,286046998.7,N
1675995435.6,286046996.6,N
1675995455.4,286046996.9,N
1675995475.2,286046998.1,N
1675995495.1,286046999.2,N
1675995496.0,286046999.2,N
1675995515.8,286046996.6,N
1675995535.7,286046997.9,N
1675995555.5,286046997.1,N
1675995575.3,286046996.5,N
1675995595.2,286046997.3,N
1675995615.0,286046995.8,N
1675995615.9,286046995.8,N
1675995635.7,286046997.9,N
1675995655.6,286046997.7,N
1675995675.4,286046997.0,N
1675995695.3,286046998.9,N
1675995715.1,286046998.4,N
1675995716.0,286046998.4,N
1675995735.8,286046998.5,N
1675995755.7,286046996.7,N
1675995775.5,286046997.5,N
1675995795.3,286046997.9,N
1675995815.2,286046995.1,N
1675995835.0,286046998.0,N
1675995835.9,286046998.0,N
1675995855.8,286046999.2,N
1675995875.6,286046996.9,N
1675995895.4,286046996.7,N
1675995915.3,286046998.2,N
1675995935.1,286047000.3,N
1675995955.8,286046999.0,N
1675995975.7,286046996.9,N
1675995995.5,286046998.1,N
1675996015.4,286047000.1,N
1675996035.2,286046998.5,N
1675996055.0,286046998.9,N
1675996055.9,286046998.9,N
1675996075.8,286047000.8,N
1675996095.6,286047000.1,N
1675996115.4,286047002.7,N
1675996135.3,286046999.8,N
1675996155.1,286047002.8,N
1675996175.9,286047002.5,N
1675996195.7,286047000.4,N
1675996215.5,286047000.9,N
1675996235.4,286047000.8,N
1675996255.2,286046996.9,N
1675996275.0,286046996.9,N
1675996275.9,286046996.9,N
1675996295.8,286046998.5,N
1675996315.6,286047001.1,N
1675996335.5,286047002.7,N
1675996355.3,286046998.5,N
1675996375.1,286047000.3,N
1675996395.9,286046998.9,N
1675996415.7,286047000.3,N
1675996435.5,286047002.7,N
1675996455.4,286047000.9,N
1675996475.2,286046999.9,N
1675996495.1,286047001.2,N
1675996496.0,286047001.2,N
1675996515.8,286046999.3,N
1675996535.6,286047000.6,N
1675996555.5,286046998.7,N
1675996575.3,286047000.4,N
1675996595.1,286046998.7,N
1675996615.9,286046998.8,N
1675996635.7,286046998.8,N
1675996655.6,286046999.4,N
1675996675.4,286047000.0,N
1675996695.2,286047001.1,N
1675996715.1,286046999.2,N
1675996716.0,286046999.2,N
1675996735.8,286046999.2,N
1675996755.6,286046996.5,N
1675996775.5,286046997.0,N
1675996795.3,286046999.5,N
1675996815.2,286046996.8,N
1675996835.9,286047001.1,N
1675996855.7,286047000.6,N
1675996875.6,286046999.0,N
1675996895.4,286046998.9,N
1675996915.2,286046997.4,N
1675996935.1,286046999.4,N
1675996936.0,286046999.4,N
1675996955.8,286046998.1,N
1675996975.7,286046999.4,N
1675996995.5,286046998.2,N
1675997015.3,286047002.4,N
1675997035.2,286046999.8,N
1675997055.9,286047000.5,N
1675997075.7,286047000.5,N
1675997095.6,286046998.1,N
1675997115.4,286047000.6,N
1675997135.3,286046999.7,N
1675997155.1,286047000.5,N
1675997156.0,286047000.5,N
1675997175.8,286046999.9,N
1675997195.7,286047001.9,N
1675997215.5,286047001.2,N
1675997235.3,286047002.3,N
1675997255.2,286047001.4,N
1675997275.0,286047004.1,N
1675997275.9,286047004.1,N
1675997295.8,286047004.4,N
1675997315.6,286047005.9,Y
1675997335.4,286047004.0,P
1675997355.3,286047004.4,N
1675997375.1,286047001.7,N
1675997395.8,286047002.0,N
1675997415.7,286047000.0,N
1675997435.5,286047001.0,N
1675997455.4,286047002.2,N
1675997475.2,286047001.3,N
1675997495.0,286047002.7,N
1675997495.9,286047002.7,N
1675997515.8,286047004.2,Y
1675997535.6,286046998.5,P
1675997555.4,286046998.2,N
1675997575.3,286046999.2,N
1675997595.1,286046999.1,N
1675997615.9,286046997.1,N
1675997635.7,286046997.7,N
1675997655.5,286046996.9,N
1675997675.4,286046998.6,N
1675997695.2,286047000.9,N
1675997715.0,286047000.8,N
1675997715.9,286047000.8,N
1675997735.8,286047000.8,N
1675997755.6,286046999.2,N
1675997775.5,286046998.9,N
1675997795.3,286046998.8,N
1675997815.1,286046998.9,N
1675997835.9,286046996.6,N
1675997855.7,286046999.6,N
1675997875.5,286046999.5,N
1675997895.4,286046999.4,N
1675997915.2,286046997.1,N
1675997935.1,286046996.7,N
1675997936.0,286046996.7,N
1675997955.8,286046997.8,N
1675997975.6,286047000.6,N
1675997995.5,286046999.5,N
